"Datum/tijd (MEZT)";"astronomisch [cm]";"waterstand [cm]";"verwachte opzet";"verwachting RWS"
2024-04-30 17:00;40;26;-17;23
2024-04-30 17:10;40;25;-18;22
2024-04-30 17:20;39;24;-17;22
2024-04-30 17:30;38;23;-17;21
2024-04-30 17:40;38;23;-17;21
2024-04-30 17:50;37;23;-16;21
2024-04-30 18:00;37;23;-17;20
2024-04-30 18:10;37;23;-16;21
2024-04-30 18:20;36;24;-15;21
2024-04-30 18:30;36;25;-14;22
2024-04-30 18:40;36;25;-15;21
2024-04-30 18:50;36;24;-16;20
2024-04-30 19:00;36;24;-12;24
2024-04-30 19:10;36;23;-13;23
2024-04-30 19:20;36;23;-14;22
2024-04-30 19:30;36;22;-14;22
2024-04-30 19:40;36;22;-15;21
2024-04-30 19:50;36;22;-15;21
2024-04-30 20:00;36;22;-15;21
2024-04-30 20:10;36;22;-14;22
2024-04-30 20:20;36;22;-13;23
2024-04-30 20:30;37;23;-14;23
2024-04-30 20:40;37;24;-13;24
2024-04-30 20:50;38;25;-13;25
2024-04-30 21:00;38;26;-13;25
2024-04-30 21:10;39;26;-13;26
2024-04-30 21:20;40;27;-12;28
2024-04-30 21:30;41;28;-11;30
2024-04-30 21:40;42;29;-10;32
2024-04-30 21:50;43;31;-9;34
2024-04-30 22:00;44;33;-8;36
2024-04-30 22:10;46;35;-7;39
2024-04-30 22:20;47;37;-6;41
2024-04-30 22:30;49;39;-6;43
2024-04-30 22:40;50;39;-6;44
2024-04-30 22:50;51;39;-6;45
2024-04-30 23:00;53;40;-7;46
2024-04-30 23:10;54;40;-6;48
2024-04-30 23:20;55;40;-6;49
2024-04-30 23:30;56;41;-7;49
2024-04-30 23:40;57;41;-7;50
2024-04-30 23:50;57;41;-6;51
2024-05-01 00:00;58;41;-7;51
2024-05-01 00:10;58;41;-6;52
2024-05-01 00:20;58;41;-6;52
2024-05-01 00:30;59;41;-7;52
2024-05-01 00:40;59;41;-7;52
2024-05-01 00:50;59;40;-7;52
2024-05-01 01:00;58;40;-6;52
2024-05-01 01:10;58;39;-7;51
2024-05-01 01:20;58;38;-7;51
2024-05-01 01:30;57;37;-7;50
2024-05-01 01:40;57;37;-8;49
2024-05-01 01:50;56;35;-8;48
2024-05-01 02:00;55;34;-8;47
2024-05-01 02:10;55;33;-10;45
2024-05-01 02:20;54;32;-10;44
2024-05-01 02:30;53;31;-11;42
2024-05-01 02:40;52;29;-12;40
2024-05-01 02:50;50;28;-11;39
2024-05-01 03:00;49;27;-12;37
2024-05-01 03:10;48;25;-12;36
2024-05-01 03:20;47;23;-13;34
2024-05-01 03:30;46;21;-13;33
2024-05-01 03:40;44;19;-13;31
2024-05-01 03:50;43;18;-13;30
2024-05-01 04:00;42;16;-13;29
2024-05-01 04:10;41;15;-13;28
2024-05-01 04:20;40;15;-14;26
2024-05-01 04:30;39;16;-14;25
2024-05-01 04:40;38;16;-14;24
2024-05-01 04:50;37;14;-14;23
2024-05-01 05:00;36;13;-14;22
2024-05-01 05:10;36;13;-15;21
2024-05-01 05:20;35;12;-15;20
2024-05-01 05:30;34;13;-14;20
2024-05-01 05:40;34;13;-15;19
2024-05-01 05:50;33;12;-14;19
2024-05-01 06:00;32;12;-14;18
2024-05-01 06:10;32;12;-14;18
2024-05-01 06:20;31;12;-12;19
2024-05-01 06:30;31;13;-12;19
2024-05-01 06:40;31;12;-12;19
2024-05-01 06:50;31;12;-13;18
2024-05-01 07:00;31;11;-13;18
2024-05-01 07:10;31;11;-14;17
2024-05-01 07:20;30;11;-13;17
2024-05-01 07:30;30;11;-14;16
2024-05-01 07:40;30;11;-14;16
2024-05-01 07:50;30;11;-14;16
2024-05-01 08:00;30;11;-21;9
2024-05-01 08:10;30;11;-20;10
2024-05-01 08:20;30;12;-19;11
2024-05-01 08:30;30;13;-19;11
2024-05-01 08:40;30;14;-18;12
2024-05-01 08:50;31;15;-18;13
2024-05-01 09:00;31;16;-15;16
2024-05-01 09:10;32;17;-15;17
2024-05-01 09:20;32;18;-13;19
2024-05-01 09:30;33;19;-12;21
2024-05-01 09:40;34;21;-10;24
2024-05-01 09:50;35;24;-8;27
2024-05-01 10:00;36;26;-6;30
2024-05-01 10:10;38;29;-5;33
2024-05-01 10:20;39;32;-4;35
2024-05-01 10:30;41;34;-3;38
2024-05-01 10:40;43;36;-2;41
2024-05-01 10:50;45;38;-2;43
2024-05-01 11:00;46;40;-1;45
2024-05-01 11:10;48;42;-1;47
2024-05-01 11:20;50;44;-1;49
2024-05-01 11:30;51;45;-1;50
2024-05-01 11:40;53;47;-2;51
2024-05-01 11:50;54;47;-2;52
2024-05-01 12:00;55;48;-2;53
2024-05-01 12:10;56;49;-2;54
2024-05-01 12:20;57;50;-2;55
2024-05-01 12:30;58;51;-2;56
2024-05-01 12:40;58;51;-2;56
2024-05-01 12:50;59;52;-2;57
2024-05-01 13:00;59;53;-2;57
2024-05-01 13:10;59;53;-1;58
2024-05-01 13:20;60;53;-2;58
2024-05-01 13:30;60;54;-2;58
2024-05-01 13:40;60;54;-3;57
2024-05-01 13:50;60;53;-3;57
2024-05-01 14:00;60;53;-3;57
2024-05-01 14:10;60;53;-4;56
2024-05-01 14:20;59;52;-3;56
2024-05-01 14:30;59;51;-4;55
2024-05-01 14:40;58;50;-4;54
2024-05-01 14:50;58;50;-5;53
2024-05-01 15:00;57;49;-7;50
2024-05-01 15:10;56;48;-7;49
2024-05-01 15:20;55;47;-7;48
2024-05-01 15:30;54;46;-7;47
2024-05-01 15:40;53;46;-7;46
2024-05-01 15:50;52;44;-7;45
2024-05-01 16:00;51;44;-7;44
2024-05-01 16:10;50;42;-8;42
2024-05-01 16:20;49;41;-8;41
2024-05-01 16:30;48;41;-8;40
2024-05-01 16:40;47;40;-9;38
2024-05-01 16:50;47;39;-10;37
2024-05-01 17:00;46;38;-10;36
2024-05-01 17:10;45;37;-10;35
2024-05-01 17:20;44;36;-10;34
2024-05-01 17:30;43;36;-10;33
2024-05-01 17:40;43;35;-11;32
2024-05-01 17:50;42;34;-11;31
2024-05-01 18:00;41;34;-11;30
2024-05-01 18:10;41;33;-11;30
2024-05-01 18:20;40;32;-11;29
2024-05-01 18:30;39;32;-10;29
2024-05-01 18:40;39;32;-11;28
2024-05-01 18:50;38;32;-10;28
2024-05-01 19:00;38;31;-10;28
2024-05-01 19:10;38;31;-10;28
2024-05-01 19:20;37;32;-8;29
2024-05-01 19:30;37;33;-8;29
2024-05-01 19:40;37;32;-9;28
2024-05-01 19:50;37;32;-9;28
2024-05-01 20:00;37;32;-10;27
2024-05-01 20:10;36;32;-9;27
2024-05-01 20:20;36;32;-9;27
2024-05-01 20:30;36;32;-10;26
2024-05-01 20:40;36;31;-10;26
2024-05-01 20:50;36;31;-10;26
2024-05-01 21:00;36;31;-9;27
2024-05-01 21:10;36;31;-9;27
2024-05-01 21:20;37;32;-9;28
2024-05-01 21:30;37;32;-9;28
2024-05-01 21:40;37;33;-8;29
2024-05-01 21:50;38;34;-8;30
2024-05-01 22:00;38;35;-7;31
2024-05-01 22:10;39;36;-7;32
2024-05-01 22:20;39;37;-6;33
2024-05-01 22:30;40;37;-5;35
2024-05-01 22:40;41;38;-4;37
2024-05-01 22:50;42;40;-3;39
2024-05-01 23:00;43;41;-1;42
2024-05-01 23:10;44;42;1;45
2024-05-01 23:20;46;44;1;47
2024-05-01 23:30;47;47;2;49
2024-05-01 23:40;48;48;2;50
2024-05-01 23:50;49;49;2;51
2024-05-02 00:00;50;50;2;52
2024-05-02 00:10;51;51;2;53
2024-05-02 00:20;52;52;3;55
2024-05-02 00:30;53;53;3;56
2024-05-02 00:40;53;;4;57
2024-05-02 00:50;54;;3;57
2024-05-02 01:00;55;;3;58
2024-05-02 01:10;55;;4;59
2024-05-02 01:20;55;;4;59
2024-05-02 01:30;56;;3;59
2024-05-02 01:40;56;;3;59
2024-05-02 01:50;56;;3;59
2024-05-02 02:00;56;;3;59
2024-05-02 02:10;56;;3;59
2024-05-02 02:20;55;;3;58
2024-05-02 02:30;55;;3;58
2024-05-02 02:40;55;;2;57
2024-05-02 02:50;54;;2;56
2024-05-02 03:00;53;;2;55
2024-05-02 03:10;53;;1;54
2024-05-02 03:20;52;;0;52
2024-05-02 03:30;51;;0;51
2024-05-02 03:40;50;;-1;49
2024-05-02 03:50;49;;-1;48
2024-05-02 04:00;48;;-2;46
2024-05-02 04:10;47;;-2;45
2024-05-02 04:20;46;;-3;43
2024-05-02 04:30;45;;-3;42
2024-05-02 04:40;44;;-3;41
2024-05-02 04:50;43;;-4;39
2024-05-02 05:00;42;;-4;38
2024-05-02 05:10;41;;-4;37
2024-05-02 05:20;40;;-4;36
2024-05-02 05:30;39;;-4;35
2024-05-02 05:40;38;;-4;34
2024-05-02 05:50;37;;-4;33
2024-05-02 06:00;36;;-4;32
2024-05-02 06:10;36;;-5;31
2024-05-02 06:20;35;;-5;30
2024-05-02 06:30;34;;-5;29
2024-05-02 06:40;33;;-4;29
2024-05-02 06:50;33;;-5;28
2024-05-02 07:00;32;;-4;28
2024-05-02 07:10;32;;-4;28
2024-05-02 07:20;31;;-3;28
2024-05-02 07:30;31;;-3;28
2024-05-02 07:40;31;;-3;28
2024-05-02 07:50;30;;-2;28
2024-05-02 08:00;30;;-3;27
2024-05-02 08:10;30;;-3;27
2024-05-02 08:20;30;;-4;26
2024-05-02 08:30;29;;-3;26
2024-05-02 08:40;29;;-3;26
2024-05-02 08:50;29;;-3;26
2024-05-02 09:00;29;;-3;26
2024-05-02 09:10;29;;-3;26
2024-05-02 09:20;29;;-2;27
2024-05-02 09:30;29;;-1;28
2024-05-02 09:40;29;;-1;28
2024-05-02 09:50;29;;0;29
2024-05-02 10:00;30;;0;30
2024-05-02 10:10;30;;1;31
2024-05-02 10:20;31;;2;33
2024-05-02 10:30;31;;3;34
2024-05-02 10:40;32;;5;37
2024-05-02 10:50;33;;6;39
2024-05-02 11:00;34;;7;41
2024-05-02 11:10;35;;9;44
2024-05-02 11:20;37;;10;47
2024-05-02 11:30;38;;11;49
2024-05-02 11:40;40;;12;52
2024-05-02 11:50;41;;13;54
2024-05-02 12:00;43;;13;56
2024-05-02 12:10;44;;14;58
2024-05-02 12:20;46;;14;60
2024-05-02 12:30;47;;15;62
2024-05-02 12:40;49;;15;64
2024-05-02 12:50;50;;15;65
2024-05-02 13:00;51;;15;66
2024-05-02 13:10;52;;15;67
2024-05-02 13:20;53;;15;68
2024-05-02 13:30;54;;15;69
2024-05-02 13:40;55;;15;70
2024-05-02 13:50;56;;15;71
2024-05-02 14:00;56;;16;72
2024-05-02 14:10;57;;15;72
2024-05-02 14:20;57;;16;73
2024-05-02 14:30;58;;15;73
2024-05-02 14:40;58;;15;73
2024-05-02 14:50;58;;15;73
2024-05-02 15:00;58;;15;73
2024-05-02 15:10;58;;15;73
2024-05-02 15:20;58;;15;73
2024-05-02 15:30;58;;14;72
2024-05-02 15:40;58;;14;72
2024-05-02 15:50;58;;13;71
2024-05-02 16:00;57;;14;71
2024-05-02 16:10;57;;13;70
2024-05-02 16:20;56;;13;69
2024-05-02 16:30;56;;12;68
2024-05-02 16:40;55;;12;67
2024-05-02 16:50;54;;12;66
2024-05-02 17:00;53;;12;65
2024-05-02 17:10;52;;11;63
2024-05-02 17:20;51;;11;62
2024-05-02 17:30;51;;9;60
2024-05-02 17:40;50;;9;59
2024-05-02 17:50;49;;9;58
2024-05-02 18:00;48;;8;56
2024-05-02 18:10;47;;8;55
2024-05-02 18:20;46;;8;54
2024-05-02 18:30;46;;7;53
2024-05-02 18:40;45;;7;52
2024-05-02 18:50;44;;7;51
2024-05-02 19:00;43;;7;50
2024-05-02 19:10;43;;6;49
2024-05-02 19:20;42;;7;49
2024-05-02 19:30;41;;7;48
2024-05-02 19:40;41;;7;48
2024-05-02 19:50;40;;7;47
2024-05-02 20:00;40;;7;47
2024-05-02 20:10;39;;8;47
2024-05-02 20:20;39;;8;47
2024-05-02 20:30;39;;8;47
2024-05-02 20:40;38;;9;47
2024-05-02 20:50;38;;9;47
2024-05-02 21:00;38;;8;46
2024-05-02 21:10;38;;7;45
2024-05-02 21:20;37;;8;45
2024-05-02 21:30;37;;8;45
2024-05-02 21:40;37;;7;44
2024-05-02 21:50;37;;7;44
2024-05-02 22:00;37;;7;44
2024-05-02 22:10;37;;7;44
2024-05-02 22:20;37;;7;44
2024-05-02 22:30;37;;7;44
2024-05-02 22:40;37;;8;45
2024-05-02 22:50;37;;8;45
2024-05-02 23:00;38;;8;46
2024-05-02 23:10;38;;9;47
2024-05-02 23:20;38;;10;48
2024-05-02 23:30;39;;10;49
2024-05-02 23:40;40;;10;50
2024-05-02 23:50;40;;12;52
2024-05-03 00:00;41;;13;54
2024-05-03 00:10;42;;14;56
2024-05-03 00:20;43;;15;58
2024-05-03 00:30;44;;16;60
2024-05-03 00:40;45;;17;62
2024-05-03 00:50;46;;18;64
2024-05-03 01:00;47;;18;65
2024-05-03 01:10;48;;18;66
2024-05-03 01:20;48;;19;67
2024-05-03 01:30;49;;19;68
2024-05-03 01:40;50;;19;69
2024-05-03 01:50;51;;19;70
2024-05-03 02:00;51;;20;71
2024-05-03 02:10;52;;20;72
2024-05-03 02:20;53;;19;72
2024-05-03 02:30;53;;20;73
2024-05-03 02:40;53;;20;73
2024-05-03 02:50;54;;19;73
2024-05-03 03:00;54;;19;73
2024-05-03 03:10;54;;19;73
2024-05-03 03:20;54;;19;73
2024-05-03 03:30;54;;19;73
2024-05-03 03:40;54;;18;72
2024-05-03 03:50;53;;19;72
2024-05-03 04:00;53;;18;71
2024-05-03 04:10;53;;17;70
2024-05-03 04:20;52;;17;69
2024-05-03 04:30;52;;15;67
2024-05-03 04:40;51;;15;66
2024-05-03 04:50;50;;15;65
2024-05-03 05:00;49;;14;63
2024-05-03 05:10;48;;14;62
2024-05-03 05:20;47;;14;61
2024-05-03 05:30;46;;13;59
2024-05-03 05:40;45;;13;58
2024-05-03 05:50;44;;13;57
2024-05-03 06:00;43;;12;55
2024-05-03 06:10;42;;12;54
2024-05-03 06:20;41;;12;53
2024-05-03 06:30;40;;12;52
2024-05-03 06:40;39;;12;51
2024-05-03 06:50;39;;11;50
2024-05-03 07:00;38;;11;49
2024-05-03 07:10;37;;11;48
2024-05-03 07:20;36;;11;47
2024-05-03 07:30;35;;11;46
2024-05-03 07:40;34;;11;45
2024-05-03 07:50;33;;11;44
2024-05-03 08:00;33;;10;43
2024-05-03 08:10;32;;11;43
2024-05-03 08:20;32;;10;42
2024-05-03 08:30;31;;11;42
2024-05-03 08:40;31;;10;41
2024-05-03 08:50;31;;10;41
2024-05-03 09:00;30;;11;41
2024-05-03 09:10;30;;12;42
2024-05-03 09:20;30;;10;40
2024-05-03 09:30;29;;11;40
2024-05-03 09:40;29;;10;39
2024-05-03 09:50;29;;10;39
2024-05-03 10:00;29;;9;38
2024-05-03 10:10;28;;10;38
2024-05-03 10:20;28;;9;37
2024-05-03 10:30;28;;9;37
2024-05-03 10:40;28;;10;38
2024-05-03 10:50;28;;10;38
2024-05-03 11:00;28;;11;39
2024-05-03 11:10;28;;12;40
2024-05-03 11:20;29;;11;40
2024-05-03 11:30;29;;12;41
2024-05-03 11:40;30;;12;42
2024-05-03 11:50;30;;14;44
2024-05-03 12:00;31;;14;45
2024-05-03 12:10;32;;15;47
2024-05-03 12:20;33;;17;50
2024-05-03 12:30;35;;17;52
2024-05-03 12:40;36;;19;55
2024-05-03 12:50;37;;20;57
2024-05-03 13:00;39;;21;60
2024-05-03 13:10;40;;22;62
2024-05-03 13:20;42;;23;65
2024-05-03 13:30;43;;24;67
2024-05-03 13:40;44;;25;69
2024-05-03 13:50;46;;25;71
2024-05-03 14:00;47;;25;72
2024-05-03 14:10;48;;25;73
2024-05-03 14:20;50;;25;75
2024-05-03 14:30;51;;25;76
2024-05-03 14:40;52;;25;77
2024-05-03 14:50;53;;25;78
2024-05-03 15:00;54;;25;79
2024-05-03 15:10;55;;25;80
2024-05-03 15:20;56;;24;80
2024-05-03 15:30;57;;24;81
2024-05-03 15:40;57;;24;81
2024-05-03 15:50;58;;24;82
2024-05-03 16:00;58;;24;82
2024-05-03 16:10;58;;24;82
2024-05-03 16:20;59;;22;81
2024-05-03 16:30;59;;22;81
2024-05-03 16:40;59;;22;81
2024-05-03 16:50;59;;21;80
2024-05-03 17:00;59;;21;80
2024-05-03 17:10;59;;21;80
2024-05-03 17:20;58;;21;79
2024-05-03 17:30;58;;20;78
2024-05-03 17:40;57;;21;78
2024-05-03 17:50;56;;21;77
2024-05-03 18:00;56;;20;76
2024-05-03 18:10;55;;20;75
2024-05-03 18:20;54;;19;73
2024-05-03 18:30;53;;19;72
2024-05-03 18:40;52;;19;71
2024-05-03 18:50;52;;17;69
2024-05-03 19:00;51;;17;68
2024-05-03 19:10;50;;17;67
2024-05-03 19:20;49;;16;65
2024-05-03 19:30;48;;16;64
2024-05-03 19:40;47;;16;63
2024-05-03 19:50;46;;16;62
2024-05-03 20:00;46;;15;61
2024-05-03 20:10;45;;15;60
2024-05-03 20:20;44;;15;59
2024-05-03 20:30;43;;15;58
2024-05-03 20:40;43;;14;57
2024-05-03 20:50;42;;14;56
2024-05-03 21:00;42;;14;56
2024-05-03 21:10;41;;14;55
2024-05-03 21:20;41;;13;54
2024-05-03 21:30;40;;14;54
2024-05-03 21:40;40;;13;53
2024-05-03 21:50;40;;13;53
2024-05-03 22:00;39;;13;52
2024-05-03 22:10;39;;13;52
2024-05-03 22:20;39;;13;52
2024-05-03 22:30;38;;14;52
2024-05-03 22:40;38;;14;52
2024-05-03 22:50;38;;13;51
2024-05-03 23:00;38;;12;50
2024-05-03 23:10;37;;13;50
2024-05-03 23:20;37;;12;49
2024-05-03 23:30;37;;12;49
2024-05-03 23:40;37;;11;48
2024-05-03 23:50;37;;11;48
2024-05-04 00:00;37;;11;48
2024-05-04 00:10;37;;11;48
2024-05-04 00:20;37;;11;48
2024-05-04 00:30;37;;11;48
2024-05-04 00:40;38;;11;49
2024-05-04 00:50;38;;11;49
2024-05-04 01:00;39;;11;50
2024-05-04 01:10;40;;10;50
2024-05-04 01:20;40;;11;51
2024-05-04 01:30;41;;11;52
2024-05-04 01:40;42;;11;53
2024-05-04 01:50;43;;11;54
2024-05-04 02:00;44;;11;55
2024-05-04 02:10;45;;11;56
2024-05-04 02:20;46;;12;58
2024-05-04 02:30;47;;13;60
2024-05-04 02:40;48;;13;61
2024-05-04 02:50;48;;15;63
2024-05-04 03:00;49;;15;64
2024-05-04 03:10;50;;15;65
2024-05-04 03:20;51;;15;66
2024-05-04 03:30;52;;14;66
2024-05-04 03:40;52;;15;67
2024-05-04 03:50;53;;14;67
2024-05-04 04:00;53;;15;68
2024-05-04 04:10;54;;14;68
2024-05-04 04:20;54;;14;68
2024-05-04 04:30;54;;14;68
2024-05-04 04:40;54;;13;67
2024-05-04 04:50;54;;13;67
2024-05-04 05:00;54;;12;66
2024-05-04 05:10;54;;12;66
2024-05-04 05:20;54;;11;65
2024-05-04 05:30;53;;11;64
2024-05-04 05:40;53;;9;62
2024-05-04 05:50;52;;9;61
2024-05-04 06:00;51;;8;59
2024-05-04 06:10;51;;7;58
2024-05-04 06:20;50;;6;56
2024-05-04 06:30;49;;6;55
2024-05-04 06:40;48;;5;53
2024-05-04 06:50;47;;5;52
2024-05-04 07:00;46;;5;51
2024-05-04 07:10;44;;5;49
2024-05-04 07:20;43;;5;48
2024-05-04 07:30;42;;5;47
2024-05-04 07:40;41;;5;46
2024-05-04 07:50;40;;5;45
2024-05-04 08:00;39;;4;43
2024-05-04 08:10;38;;4;42
2024-05-04 08:20;37;;4;41
2024-05-04 08:30;36;;4;40
2024-05-04 08:40;35;;5;40
2024-05-04 08:50;35;;4;39
2024-05-04 09:00;34;;4;38
2024-05-04 09:10;33;;4;37
2024-05-04 09:20;33;;3;36
2024-05-04 09:30;32;;4;36
2024-05-04 09:40;32;;3;35
2024-05-04 09:50;31;;3;34
2024-05-04 10:00;31;;3;34
2024-05-04 10:10;30;;3;33
2024-05-04 10:20;30;;3;33
2024-05-04 10:30;30;;2;32
2024-05-04 10:40;29;;4;33
2024-05-04 10:50;29;;4;33
2024-05-04 11:00;29;;2;31
2024-05-04 11:10;28;;3;31
2024-05-04 11:20;28;;2;30
2024-05-04 11:30;28;;1;29
2024-05-04 11:40;27;;2;29
2024-05-04 11:50;27;;1;28
2024-05-04 12:00;27;;1;28
2024-05-04 12:10;27;;1;28
2024-05-04 12:20;27;;1;28
2024-05-04 12:30;27;;2;29
2024-05-04 12:40;28;;1;29
2024-05-04 12:50;28;;2;30
2024-05-04 13:00;29;;2;31
2024-05-04 13:10;30;;1;31
2024-05-04 13:20;31;;1;32
2024-05-04 13:30;32;;2;34
2024-05-04 13:40;33;;2;35
2024-05-04 13:50;34;;3;37
2024-05-04 14:00;36;;4;40
2024-05-04 14:10;37;;6;43
2024-05-04 14:20;39;;7;46
2024-05-04 14:30;40;;9;49
2024-05-04 14:40;42;;9;51
2024-05-04 14:50;43;;11;54
2024-05-04 15:00;45;;12;57
2024-05-04 15:10;46;;13;59
2024-05-04 15:20;48;;12;60
2024-05-04 15:30;50;;11;61
2024-05-04 15:40;51;;12;63
2024-05-04 15:50;52;;12;64
2024-05-04 16:00;54;;11;65
2024-05-04 16:10;55;;11;66
2024-05-04 16:20;56;;11;67
2024-05-04 16:30;57;;11;68
2024-05-04 16:40;58;;11;69
2024-05-04 16:50;58;;12;70
2024-05-04 17:00;59;;11;70
2024-05-04 17:10;60;;10;70
2024-05-04 17:20;60;;11;71
2024-05-04 17:30;60;;11;71
2024-05-04 17:40;61;;10;71
2024-05-04 17:50;61;;9;70
2024-05-04 18:00;61;;9;70
2024-05-04 18:10;61;;9;70
2024-05-04 18:20;60;;9;69
2024-05-04 18:30;60;;8;68
2024-05-04 18:40;59;;8;67
2024-05-04 18:50;59;;7;66
2024-05-04 19:00;58;;7;65
2024-05-04 19:10;57;;7;64
2024-05-04 19:20;56;;7;63
2024-05-04 19:30;56;;6;62
2024-05-04 19:40;55;;5;60
2024-05-04 19:50;54;;5;59
2024-05-04 20:00;53;;4;57
2024-05-04 20:10;52;;4;56
2024-05-04 20:20;51;;4;55
2024-05-04 20:30;50;;3;53
2024-05-04 20:40;49;;3;52
2024-05-04 20:50;48;;3;51
2024-05-04 21:00;47;;3;50
2024-05-04 21:10;46;;3;49
2024-05-04 21:20;45;;3;48
2024-05-04 21:30;45;;2;47
2024-05-04 21:40;44;;2;46
2024-05-04 21:50;44;;1;45
2024-05-04 22:00;43;;1;44
2024-05-04 22:10;42;;1;43
2024-05-04 22:20;42;;0;42
2024-05-04 22:30;42;;0;42
2024-05-04 22:40;41;;0;41
2024-05-04 22:50;41;;0;41
2024-05-04 23:00;40;;0;40
2024-05-04 23:10;40;;0;40
2024-05-04 23:20;40;;-1;39
2024-05-04 23:30;39;;0;39
2024-05-04 23:40;39;;0;39
2024-05-04 23:50;39;;0;39
2024-05-05 00:00;38;;0;38
2024-05-05 00:10;38;;-1;37
2024-05-05 00:20;38;;-1;37
2024-05-05 00:30;37;;-1;36
2024-05-05 00:40;37;;-1;36
2024-05-05 00:50;37;;-2;35
2024-05-05 01:00;37;;-2;35
2024-05-05 01:10;37;;-3;34
2024-05-05 01:20;37;;-2;35
2024-05-05 01:30;37;;-2;35
2024-05-05 01:40;37;;-1;36
2024-05-05 01:50;37;;-1;36
2024-05-05 02:00;38;;-1;37
2024-05-05 02:10;38;;0;38
2024-05-05 02:20;39;;-1;38
2024-05-05 02:30;40;;-1;39
2024-05-05 02:40;41;;0;41
2024-05-05 02:50;42;;0;42
2024-05-05 03:00;43;;1;44
2024-05-05 03:10;44;;2;46
2024-05-05 03:20;45;;3;48
2024-05-05 03:30;46;;4;50
2024-05-05 03:40;47;;5;52
2024-05-05 03:50;48;;5;53
2024-05-05 04:00;50;;5;55
2024-05-05 04:10;51;;5;56
2024-05-05 04:20;52;;6;58
2024-05-05 04:30;53;;6;59
2024-05-05 04:40;54;;5;59
2024-05-05 04:50;54;;6;60
2024-05-05 05:00;55;;6;61
2024-05-05 05:10;56;;5;61
2024-05-05 05:20;56;;5;61
2024-05-05 05:30;56;;5;61
2024-05-05 05:40;56;;5;61
2024-05-05 05:50;57;;4;61
2024-05-05 06:00;57;;4;61
2024-05-05 06:10;56;;5;61
2024-05-05 06:20;56;;4;60
2024-05-05 06:30;56;;4;60
2024-05-05 06:40;55;;4;59
2024-05-05 06:50;55;;2;57
2024-05-05 07:00;54;;2;56
2024-05-05 07:10;53;;1;54
2024-05-05 07:20;52;;0;52
2024-05-05 07:30;51;;0;51
2024-05-05 07:40;50;;-1;49
2024-05-05 07:50;49;;-2;47
2024-05-05 08:00;47;;-1;46
2024-05-05 08:10;46;;-2;44
2024-05-05 08:20;45;;-2;43
2024-05-05 08:30;44;;-3;41
2024-05-05 08:40;42;;-2;40
2024-05-05 08:50;41;;-3;38
2024-05-05 09:00;40;;-3;37
2024-05-05 09:10;39;;-3;36
2024-05-05 09:20;38;;-3;35
2024-05-05 09:30;37;;-3;34
2024-05-05 09:40;36;;-3;33
2024-05-05 09:50;35;;-3;32
2024-05-05 10:00;35;;-4;31
2024-05-05 10:10;34;;-4;30
2024-05-05 10:20;34;;-5;29
2024-05-05 10:30;33;;-5;28
2024-05-05 10:40;32;;-4;28
2024-05-05 10:50;32;;-5;27
2024-05-05 11:00;31;;-4;27
2024-05-05 11:10;31;;-5;26
2024-05-05 11:20;30;;-4;26
2024-05-05 11:30;30;;-4;26
2024-05-05 11:40;30;;-4;26
2024-05-05 11:50;29;;-3;26
2024-05-05 12:00;29;;-3;26
2024-05-05 12:10;28;;-3;25
2024-05-05 12:20;28;;-4;24
2024-05-05 12:30;28;;-5;23
2024-05-05 12:40;28;;-5;23
2024-05-05 12:50;27;;-5;22
2024-05-05 13:00;27;;-5;22
2024-05-05 13:10;27;;-5;22
2024-05-05 13:20;27;;-5;22
2024-05-05 13:30;27;;-5;22
2024-05-05 13:40;27;;-4;23
2024-05-05 13:50;28;;-4;24
2024-05-05 14:00;28;;-4;24
2024-05-05 14:10;29;;-4;25
2024-05-05 14:20;30;;-4;26
2024-05-05 14:30;31;;-3;28
2024-05-05 14:40;32;;-3;29
2024-05-05 14:50;33;;-2;31
2024-05-05 15:00;35;;-1;34
2024-05-05 15:10;36;;1;37
2024-05-05 15:20;38;;2;40
2024-05-05 15:30;40;;3;43
2024-05-05 15:40;41;;5;46
2024-05-05 15:50;43;;6;49
2024-05-05 16:00;45;;7;52
2024-05-05 16:10;47;;8;55
2024-05-05 16:20;49;;8;57
2024-05-05 16:30;50;;8;58
2024-05-05 16:40;52;;7;59
2024-05-05 16:50;54;;6;60
2024-05-05 17:00;55;;7;62
2024-05-05 17:10;56;;7;63
2024-05-05 17:20;57;;7;64
2024-05-05 17:30;58;;6;64
2024-05-05 17:40;59;;6;65
2024-05-05 17:50;60;;6;66
2024-05-05 18:00;61;;5;66
2024-05-05 18:10;61;;6;67
2024-05-05 18:20;62;;5;67
2024-05-05 18:30;62;;5;67
2024-05-05 18:40;63;;4;67
2024-05-05 18:50;63;;4;67
2024-05-05 19:00;63;;4;67
2024-05-05 19:10;62;;4;66
2024-05-05 19:20;62;;4;66
2024-05-05 19:30;62;;3;65
2024-05-05 19:40;61;;4;65
2024-05-05 19:50;60;;4;64
2024-05-05 20:00;59;;4;63
2024-05-05 20:10;58;;4;62
2024-05-05 20:20;57;;4;61
2024-05-05 20:30;56;;3;59
2024-05-05 20:40;55;;3;58
2024-05-05 20:50;54;;2;56
2024-05-05 21:00;53;;2;55
2024-05-05 21:10;52;;1;53
2024-05-05 21:20;51;;1;52
2024-05-05 21:30;50;;1;51
2024-05-05 21:40;49;;0;49
2024-05-05 21:50;48;;0;48
2024-05-05 22:00;47;;0;47
2024-05-05 22:10;47;;-2;45
2024-05-05 22:20;46;;-2;44
2024-05-05 22:30;45;;-2;43
2024-05-05 22:40;45;;-2;43
2024-05-05 22:50;44;;-2;42
2024-05-05 23:00;43;;-2;41
2024-05-05 23:10;43;;-3;40
2024-05-05 23:20;42;;-2;40
2024-05-05 23:30;42;;-3;39
2024-05-05 23:40;41;;-3;38
2024-05-05 23:50;41;;-3;38
2024-05-06 00:00;41;;-3;38
2024-05-06 00:10;40;;-3;37
2024-05-06 00:20;40;;-3;37
2024-05-06 00:30;40;;-2;38
2024-05-06 00:40;39;;-1;38
2024-05-06 00:50;39;;-2;37
2024-05-06 01:00;39;;-2;37
2024-05-06 01:10;38;;-2;36
2024-05-06 01:20;38;;-2;36
2024-05-06 01:30;38;;-3;35
2024-05-06 01:40;37;;-2;35
2024-05-06 01:50;37;;-3;34
2024-05-06 02:00;37;;-3;34
2024-05-06 02:10;37;;-3;34
2024-05-06 02:20;37;;-3;34
2024-05-06 02:30;37;;-2;35
2024-05-06 02:40;37;;-1;36
2024-05-06 02:50;38;;-1;37
2024-05-06 03:00;38;;-1;37
2024-05-06 03:10;39;;-1;38
2024-05-06 03:20;40;;-1;39
2024-05-06 03:30;41;;-1;40
2024-05-06 03:40;42;;0;42
2024-05-06 03:50;43;;1;44
2024-05-06 04:00;44;;2;46
2024-05-06 04:10;45;;4;49
2024-05-06 04:20;47;;4;51
2024-05-06 04:30;48;;5;53
2024-05-06 04:40;50;;4;54
2024-05-06 04:50;51;;5;56
2024-05-06 05:00;52;;6;58
2024-05-06 05:10;54;;5;59
2024-05-06 05:20;55;;6;61
2024-05-06 05:30;56;;6;62
2024-05-06 05:40;57;;5;62
2024-05-06 05:50;57;;6;63
2024-05-06 06:00;58;;6;64
2024-05-06 06:10;58;;6;64
2024-05-06 06:20;59;;5;64
2024-05-06 06:30;59;;5;64
2024-05-06 06:40;59;;5;64
2024-05-06 06:50;59;;5;64
2024-05-06 07:00;59;;5;64
2024-05-06 07:10;59;;5;64
2024-05-06 07:20;59;;4;63
2024-05-06 07:30;58;;4;62
2024-05-06 07:40;58;;3;61
2024-05-06 07:50;57;;2;59
2024-05-06 08:00;56;;2;58
2024-05-06 08:10;55;;1;56
2024-05-06 08:20;54;;0;54
2024-05-06 08:30;52;;0;52
2024-05-06 08:40;51;;0;51
2024-05-06 08:50;50;;-1;49
2024-05-06 09:00;48;;-1;47
2024-05-06 09:10;47;;-2;45
2024-05-06 09:20;45;;-1;44
2024-05-06 09:30;44;;-2;42
2024-05-06 09:40;43;;-2;41
2024-05-06 09:50;42;;-2;40
2024-05-06 10:00;40;;-2;38
2024-05-06 10:10;39;;-2;37
2024-05-06 10:20;39;;-3;36
2024-05-06 10:30;38;;-3;35
2024-05-06 10:40;37;;-4;33
2024-05-06 10:50;36;;-4;32
2024-05-06 11:00;35;;-4;31
2024-05-06 11:10;35;;-4;31
2024-05-06 11:20;34;;-4;30
2024-05-06 11:30;33;;-4;29
2024-05-06 11:40;33;;-5;28
2024-05-06 11:50;32;;-4;28
2024-05-06 12:00;32;;-5;27
2024-05-06 12:10;31;;-4;27
2024-05-06 12:20;31;;-5;26
2024-05-06 12:30;30;;-4;26
2024-05-06 12:40;30;;-3;27
2024-05-06 12:50;30;;-3;27
2024-05-06 13:00;29;;-3;26
2024-05-06 13:10;29;;-4;25
2024-05-06 13:20;29;;-4;25
2024-05-06 13:30;29;;-5;24
2024-05-06 13:40;28;;-5;23
2024-05-06 13:50;28;;-5;23